This is the latest recevied weather packets stored in our database for station/object KY0TEQ-13. If no packets are shown the sender has not sent any weather packets the latest 10 day(s).
| Time | Temp. | Humidity | Pressure | Rain* | Wind** | Luminosity | Snow |
|---|---|---|---|---|---|---|---|
| 1787902758 | 16.67° C | 42% | 1312.9 hPa | 0 mm | - | 0 W/m² | - |
| 1787902453 | 16.67° C | 42% | 1312.8 hPa | 0 mm | - | 0 W/m² | - |
| 1787902148 | 15.56° C | 44% | 1313 hPa | 0 mm | - | 0 W/m² | - |
| 1787901844 | 15.56° C | 46% | 1313 hPa | 0 mm | - | 0 W/m² | - |
| 1787901538 | 15° C | 48% | 1312.9 hPa | 0 mm | - | 0 W/m² | - |
| 1787901235 | 13.89° C | 53% | 1312.7 hPa | 0 mm | - | 0 W/m² | - |
| 1787900935 | 15° C | 51% | 1312.7 hPa | 0 mm | - | 0 W/m² | - |
| 1787900631 | 15° C | 51% | 1312.4 hPa | 0 mm | - | 0 W/m² | - |
| 1787900329 | 15.56° C | 47% | 1312.5 hPa | 0 mm | - | 0 W/m² | - |
| 1787900024 | 16.67° C | 44% | 1312.7 hPa | 0 mm | - | 0 W/m² | - |
| 1787899720 | 15° C | 47% | 1312.4 hPa | 0 mm | - | 0 W/m² | - |
| 1787899416 | 15.56° C | 49% | 1312.2 hPa | 0 mm | - | 0 W/m² | - |
| 1787899110 | 16.11° C | 46% | 1312.3 hPa | 0 mm | - | 0 W/m² | - |
| 1787898806 | 16.11° C | 44% | 1312.3 hPa | 0 mm | - | 0 W/m² | - |
| 1787898505 | 14.44° C | 51% | 1312.3 hPa | 0 mm | - | 0 W/m² | - |
| 1787898204 | 15.56° C | 51% | 1312.3 hPa | 0 mm | - | 0 W/m² | - |
| 1787897900 | 16.67° C | 44% | 1312.3 hPa | 0 mm | - | 0 W/m² | - |
| 1787897600 | 16.67° C | 43% | 1312.3 hPa | 0 mm | - | 0 W/m² | - |
| 1787897299 | 16.67° C | 43% | 1312.3 hPa | 0 mm | - | 0 W/m² | - |
| 1787896993 | 16.67° C | 44% | 1312.4 hPa | 0 mm | - | 0 W/m² | - |
| 1787896692 | 16.11° C | 45% | 1312.2 hPa | 0 mm | - | 0 W/m² | - |
| 1787896389 | 16.67° C | 45% | 1312.2 hPa | 0 mm | - | 0 W/m² | - |
| 1787896084 | 15° C | 47% | 1312.2 hPa | 0 mm | - | 0 W/m² | - |
| 1787895780 | 16.11° C | 49% | 1311.9 hPa | 0 mm | - | 0 W/m² | - |
| 1787895474 | 17.22° C | 43% | 1312.2 hPa | 0 mm | - | 0 W/m² | - |
* Rain latest hour (hover to see other rain measurements)
** Current wind speed in m/s (hover to see current wind gust speed)